EW7678 Weather Reports


Display with metric or nautical units.
time (UTC)temp
F
wind
direction
speed
MPH
gust
MPH
rain 1hr
in
rain 24hr
in
rain mn
in
humidity
%
barometer
mb
20260507163034 64 46 0.0 2.0 0.00 0.04 0.01 55 1015.2
20260507161546 63 158 0.0 2.0 0.00 0.04 0.01 57 1015.4
20260507160029 62 73 0.0 2.0 0.00 0.04 0.01 62 1015.5
20260507154525 60 309 0.0 2.0 0.00 0.04 0.01 64 1015.6
20260507153029 59 109 1.0 2.0 0.01 0.04 0.01 67 1015.7
20260507151517 57 97 0.0 3.0 0.01 0.04 0.01 75 1015.7
20260507150015 56 115 0.0 1.0 0.01 0.04 0.01 83 1015.6
20260507144509 53 113 0.0 0.0 0.01 0.04 0.01 95 1015.6
20260507143011 50 113 0.0 1.0 0.00 0.03 0.00 97 1015.6
20260507141505 45 23 0.0 0.0 0.00 0.03 0.00 96 1015.6
20260507140001 44 23 0.0 0.0 0.00 0.03 0.00 97 1015.4
20260507134600 42 23 0.0 0.0 0.00 0.03 0.00 96 1015.4
20260507133058 40 23 0.0 0.0 0.00 0.03 0.00 96 1015.1
20260507131602 40 23 0.0 0.0 0.00 0.03 0.00 95 1014.8
20260507130056 39 23 0.0 0.0 0.00 0.03 0.00 95 1014.6
20260507124602 40 23 0.0 0.0 0.00 0.03 0.00 95 1014.8
20260507123051 40 23 0.0 0.0 0.00 0.03 0.00 95 1014.8
20260507121548 41 23 0.0 0.0 0.00 0.03 0.00 95 1014.6
20260507120049 41 22 0.0 2.0 0.00 0.03 0.00 95 1014.6
20260507114602 42 40 0.0 0.0 0.00 0.03 0.00 95 1014.1
20260507113101 42 40 0.0 0.0 0.00 0.03 0.00 95 1014.0
20260507111541 42 40 0.0 0.0 0.00 0.03 0.00 94 1013.9
20260507110035 42 41 0.0 0.0 0.00 0.03 0.00 94 1013.6
20260507104540 42 41 0.0 0.0 0.00 0.03 0.00 94 1013.6
20260507103032 43 41 0.0 0.0 0.00 0.03 0.00 94 1013.6
20260507101529 44 41 0.0 0.0 0.00 0.03 0.00 95 1013.5
20260507100026 44 41 0.0 0.0 0.00 0.03 0.00 95 1013.2
20260507094525 44 41 0.0 1.0 0.00 0.03 0.00 93 1013.1
20260507093022 44 41 0.0 0.0 0.00 0.03 0.00 94 1012.9
20260507091519 44 41 0.0 0.0 0.00 0.03 0.00 93 1012.8
20260507090016 46 41 0.0 0.0 0.00 0.03 0.00 94 1012.6
20260507084514 46 41 0.0 0.0 0.00 0.03 0.00 93 1012.4
20260507083012 46 41 0.0 0.0 0.00 0.03 0.00 94 1012.3
20260507081510 46 41 0.0 0.0 0.00 0.03 0.00 93 1012.2
20260507080006 47 41 0.0 0.0 0.00 0.03 0.00 93 1011.8
20260507074504 48 41 0.0 0.0 0.00 0.03 0.00 93 1011.6
20260507073001 48 41 0.0 0.0 0.00 0.03 0.00 92 1011.4
20260507071558 49 41 0.0 0.0 0.00 0.03 0.00 92 1011.3
20260507064555 50 41 0.0 0.0 0.00 0.03 0.03 91 1011.0
20260507063055 51 41 0.0 0.0 0.00 0.03 0.03 91 1010.9
20260507061554 52 41 0.0 0.0 0.00 0.03 0.03 90 1010.8
20260507060058 53 41 0.0 0.0 0.00 0.03 0.03 90 1010.6
20260507054551 54 41 0.0 0.0 0.00 0.03 0.03 88 1010.5
20260507053051 55 41 0.0 0.0 0.00 0.03 0.03 88 1010.3
20260507051552 56 41 0.0 0.0 0.00 0.03 0.03 86 1010.0
20260507050049 57 41 0.0 0.0 0.00 0.03 0.03 85 1009.9
20260507044604 58 41 0.0 1.0 0.00 0.03 0.03 83 1009.9
20260507043101 58 103 0.0 0.0 0.00 0.03 0.03 81 1009.6
20260507041554 60 103 0.0 2.0 0.00 0.03 0.03 77 1009.5
20260507040047 61 128 0.0 2.0 0.00 0.03 0.03 75 1009.5
20260507034549 62 330 0.0 3.0 0.00 0.03 0.03 75 1009.4
20260507033047 62 83 0.0 3.0 0.00 0.03 0.03 72 1009.2
20260507031549 62 109 0.0 2.0 0.00 0.03 0.03 74 1008.9
20260507030046 61 271 0.0 3.0 0.00 0.03 0.03 77 1008.7
20260507024551 62 265 0.0 1.0 0.00 0.03 0.03 75 1008.7
20260507023101 61 253 0.0 6.0 0.00 0.03 0.03 78 1008.7
20260507021548 60 278 0.0 1.0 0.02 0.03 0.03 84 1008.6
20260507020051 62 294 0.0 1.0 0.03 0.03 0.03 77 1008.0
20260507014544 62 325 0.0 2.0 0.03 0.03 0.03 76 1007.7
20260507013044 63 107 1.0 6.0 0.03 0.03 0.03 74 1007.5
20260507011546 64 217 3.0 5.0 0.01 0.01 0.01 64 1008.6
20260507010142 67 231 4.0 10.0 0.00 0.00 0.00 59 1008.5
20260507004541 74 233 4.0 10.0 0.00 0.00 0.00 39 1007.9
20260507003038 76 221 0.0 8.0 0.00 0.00 0.00 33 1006.5
20260507001605 78 278 0.0 1.0 0.00 0.00 0.00 37 1005.9
20260507000042 80 255 0.0 1.0 0.00 0.00 0.00 29 1005.7
20260506234536 81 153 0.0 2.0 0.00 0.00 0.00 27 1005.9
20260506233036 83 77 0.0 4.0 0.00 0.00 0.00 27 1005.9
20260506231534 83 263 0.0 4.0 0.00 0.00 0.00 26 1006.1
20260506230049 84 79 1.0 4.0 0.00 0.00 0.00 25 1006.4
20260506224529 84 115 0.0 3.0 0.00 0.00 0.00 25 1006.7
20260506223030 83 338 1.0 3.0 0.00 0.00 0.00 25 1007.0
20260506221520 82 118 1.0 4.0 0.00 0.00 0.00 25 1007.3
20260506220016 81 98 1.0 4.0 0.00 0.00 0.00 32 1007.7
20260506214513 80 116 1.0 3.0 0.00 0.00 0.00 33 1007.9
20260506213011 82 230 0.0 2.0 0.00 0.00 0.00 29 1008.1
20260506211507 81 215 1.0 3.0 0.00 0.00 0.00 28 1008.3
20260506210007 81 227 1.0 3.0 0.00 0.00 0.00 30 1008.5
20260506204501 81 68 0.0 3.0 0.00 0.00 0.00 31 1008.7
20260506203121 79 97 1.0 5.0 0.00 0.00 0.00 32 1008.9
20260506201554 77 134 1.0 5.0 0.00 0.00 0.00 33 1009.2
20260506200055 76 145 0.0 4.0 0.00 0.00 0.00 35 1009.4
20260506194547 76 106 1.0 4.0 0.00 0.00 0.00 35 1009.8
20260506193046 74 114 1.0 4.0 0.00 0.00 0.00 37 1010.0
20260506191539 72 148 1.0 3.0 0.00 0.00 0.00 38 1010.1
20260506190035 70 119 0.0 3.0 0.00 0.00 0.00 41 1010.4
20260506184538 70 122 1.0 3.0 0.00 0.00 0.00 41 1010.5
20260506183031 69 113 1.0 4.0 0.00 0.00 0.00 42 1010.6
20260506181538 69 129 1.0 3.0 0.00 0.00 0.00 42 1010.9
20260506180029 69 27 0.0 3.0 0.00 0.00 0.00 42 1011.1
20260506174533 68 106 0.0 2.0 0.00 0.00 0.00 43 1011.2
20260506173028 69 48 0.0 3.0 0.00 0.00 0.00 41 1011.3
20260506171527 68 263 0.0 1.0 0.00 0.00 0.00 39 1011.4
20260506170026 67 324 0.0 2.0 0.00 0.00 0.00 42 1011.6
20260506164537 66 106 0.0 2.0 0.00 0.00 0.00 47 1011.7